Dewpoint
33 35 35 36 36 37 37 40 44 52 57 57 57 57 57 57 58 58 58 57 56 56 55 56 55 55 56 56 57 54 51 50 50 49 49 50 51 52 53 54 54 54 53
28 30 33 34 34 36 35 37 41 45 50 56 56 56 55 56 56 57 57 57 57 55 55 55 54 53 54 53 55 55 53 51 50 48 48 47 48 49 50 52 53 54 53
24 24 28 32 33 33 35 35 38 40 44 49 56 56 55 54 53 52 52 52 55 56 54 53 54 54 53 53 53 54 54 52 51 49 47 45 45 47 48 49 51 52 53
22 22 24 30 32 32 34 34 35 37 41 43 51 52 51 49 50 51 51 51 51 51 52 52 50 51 51 52 53 53 54 54 51 50 50 46 46 44 43 46 47 49 50
19 19 21 25 30 32 32 33 34 34 36 38 41 42 44 48 49 50 50 51 51 52 51 50 48 48 48 48 51 50 52 53 53 52 51 49 46 43 41 39 42 46 48
16 18 17 19 24 26 30 30 32 32 33 34 35 36 37 38 39 40 41 42 43 42 42 46 50 49 47 46 45 47 49 49 51 51 51 49 48 46 43 40 40 41 44
15 16 16 16 17 19 22 24 25 28 30 31 31 33 34 34 34 36 36 36 37 38 38 40 41 43 46 49 47 46 45 46 47 48 49 49 48 48 47 46 45 43 43
14 15 16 16 16 18 19 20 22 22 22 26 27 28 29 30 31 32 32 32 33 34 35 36 37 37 39 41 43 48 47 46 46 46 47 48 49 49 48 47 46 45 44
14 14 15 15 16 16 17 19 20 20 21 20 20 21 23 24 25 26 27 29 29 27 29 31 32 33 34 34 37 39 42 46 48 47 47 46 47 49 49 48 47 46 43
14 14 14 15 15 16 16 17 18 19 19 18 18 18 19 21 23 24 24 25 25 26 26 27 28 28 28 29 32 33 36 37 40 45 47 47 47 47 48 49 49 48 46
13 14 14 15 15 15 15 15 16 17 19 17 17 17 18 18 18 19 21 23 24 24 24 25 25 26 27 27 29 31 31 31 33 35 36 37 41 46 47 47 48 48 48
14 14 14 14 14 14 13 13 13 14 17 17 15 15 16 16 17 18 18 21 20 23 21 23 24 24 25 26 27 28 29 29 30 31 31 31 33 35 38 46 47 47 48
14 14 14 14 14 14 12 11 12 12 13 17 13 13 14 14 15 17 18 18 19 20 21 21 22 23 24 25 27 27 28 29 30 30 31 30 30 30 32 36 35 40 47
13 14 14 14 15 14 11 11 10 11 12 15 12 11 12 13 14 15 17 17 17 17 18 19 21 22 23 24 25 26 28 29 29 30 30 30 30 30 30 31 32 32 35
13 13 14 14 14 13 10 9 9 10 11 11 12 11 12 12 13 13 14 16 16 16 17 18 19 21 21 20 24 26 27 28 28 28 29 29 29 29 30 30 31 31 32
13 13 14 14 12 13 9 7 8 9 10 10 11 11 12 13 13 13 13 15 15 15 16 17 18 19 18 21 24 25 25 27 26 26 26 27 27 28 28 28 29 29 30
13 13 14 13 11 12 9 7 8 9 9 10 11 10 11 12 12 13 14 14 15 16 16 16 18 18 18 20 23 24 24 25 24 25 25 25 25 26 26 26 27 29 29
13 14 13 10 9 10 8 8 9 9 9 9 10 10 11 11 12 12 12 13 15 16 16 17 18 17 17 21 21 23 23 23 23 24 24 25 25 25 26 26 27 27 28
14 14 10 8 7 8 9 9 9 9 9 9 10 11 11 11 11 10 11 13 14 15 15 15 16 17 18 19 20 21 21 21 21 23 24 24 25 25 26 24 24 23 24
9 9 7 7 8 9 10 9 9 9 8 9 10 11 11 11 10 10 11 12 15 16 14 14 16 17 17 18 20 20 21 20 20 21 23 24 24 24 23 23 24 25 25
8 7 7 7 9 11 10 9 9 9 9 10 10 11 11 10 10 10 11 13 15 15 14 14 16 16 17 18 18 18 19 19 20 22 22 24 24 24 23 25 27 29 29
7 8 8 8 10 10 9 9 9 9 9 10 10 10 10 10 9 10 12 14 13 14 14 14 14 15 16 18 16 17 18 18 20 23 24 24 24 23 23 25 25 25 24
7 8 8 10 9 8 9 9 8 9 9 9 9 9 10 11 11 12 13 12 13 13 13 13 13 14 15 17 15 16 17 19 20 22 21 21 23 24 24 24 24 27 30
7 8 9 8 7 8 8 8 9 9 9 9 9 10 11 12 12 11 12 13 13 13 12 12 13 14 19 16 16 17 22 23 22 23 24 28 24 21 21 22 23 23 24
9 10 8 7 7 8 8 9 8 9 9 9 10 11 11 11 11 12 12 13 14 14 15 17 18 19 17 17 17 21 20 22 23 21 26 21 19 19 19 20 21 21 23
9 8 8 8 8 8 9 9 9 9 9 10 10 10 11 11 12 12 11 12 13 14 14 14 16 17 17 14 18 17 19 20 22 23 20 18 18 17 17 19 20 21 21
Wind_Speed
19 22 23 24 26 29 32 30 28 21 1 6 7 5 5 4 8 11 9 7 10 15 15 14 13 10 10 8 9 6 11 6 10 9 2 1 3 7 9 7 6 9 12
25 25 26 27 28 25 30 30 28 24 14 2 4 4 6 8 6 6 11 11 8 6 13 14 12 11 10 8 7 6 5 3 14 8 7 5 3 7 10 10 9 11 11
20 23 26 25 26 28 29 28 27 24 21 17 9 12 9 8 14 13 15 18 14 14 7 6 9 8 7 10 10 9 7 8 12 8 6 5 8 6 5 14 14 14 12
17 18 22 27 27 26 26 26 27 27 25 24 17 20 14 17 16 11 18 20 21 21 17 13 9 4 2 4 7 7 7 5 10 6 5 1 3 6 5 6 10 11 13
14 17 19 19 20 24 23 26 29 33 29 30 25 19 19 15 14 18 24 22 18 20 18 14 14 10 8 6 2 2 5 6 5 8 3 2 4 1 4 8 6 6 14
13 15 16 16 19 19 23 25 29 27 28 28 29 27 26 20 21 23 20 16 16 17 21 20 18 16 11 9 5 4 3 5 9 4 7 6 5 7 5 9 9 11 9
12 14 17 19 19 22 21 20 20 26 24 28 30 29 26 26 26 21 19 19 17 17 20 20 18 15 15 12 7 2 3 6 8 7 9 10 10 6 6 8 10 11 9
11 13 14 15 16 18 21 19 20 21 23 25 24 22 20 18 18 17 15 15 12 11 14 15 14 14 15 14 15 8 9 5 5 6 7 8 10 9 11 9 11 10 10
8 10 12 13 14 15 16 17 19 20 21 19 16 20 18 20 19 17 15 13 12 13 15 14 13 13 12 13 14 13 14 14 9 9 9 8 8 8 10 12 14 14 18
7 8 9 11 11 12 12 15 15 15 15 16 18 17 17 17 16 15 16 16 16 18 16 17 15 15 16 16 13 12 11 11 11 12 11 10 9 9 10 12 13 14 17
7 6 7 8 9 11 13 12 13 13 15 16 15 16 16 17 15 13 14 15 16 17 16 16 15 15 16 15 14 12 12 14 12 11 11 12 15 12 11 10 15 17 17
6 6 6 6 9 11 12 14 14 14 13 11 12 13 12 12 13 15 15 14 15 12 14 14 14 14 14 13 12 12 12 13 14 14 13 13 14 15 14 13 15 16 16
7 4 4 6 6 8 8 10 10 11 10 8 11 13 15 14 13 12 12 12 12 11 12 12 12 12 13 14 12 13 13 12 11 12 12 13 13 14 13 13 16 18 14
10 6 3 4 6 8 10 11 11 10 11 11 13 13 12 10 10 10 11 12 12 10 10 10 9 10 11 11 10 12 13 12 12 11 10 11 12 12 14 15 15 16 17
10 7 4 3 5 8 11 13 14 15 14 14 15 16 16 18 19 20 18 16 15 14 13 12 11 10 12 10 14 12 11 11 12 12 13 13 15 19 17 15 15 15 15
11 8 5 3 5 6 7 9 9 10 10 10 11 13 13 12 11 12 15 15 16 16 17 18 18 18 14 18 18 17 14 12 12 14 13 13 16 15 18 20 21 19 17
13 9 5 3 2 3 4 6 7 7 9 9 10 10 10 10 10 11 10 10 11 12 15 17 15 17 15 19 21 21 14 12 13 15 16 16 14 17 16 19 21 20 21
8 7 6 4 2 1 3 4 5 6 9 10 11 12 13 12 10 10 11 12 11 10 10 10 12 13 17 22 22 22 14 13 14 14 14 16 18 16 19 18 19 19 18
8 6 4 3 2 3 3 5 7 7 9 9 10 10 12 13 13 15 14 12 12 13 13 14 15 14 13 18 19 19 15 16 15 15 15 16 17 20 24 22 22 23 21
8 6 4 3 2 4 3 6 7 8 11 10 10 10 10 11 12 13 14 11 11 14 13 16 14 16 17 21 21 20 15 16 16 16 16 20 20 25 27 24 22 24 22
7 6 3 1 2 4 6 8 8 11 11 10 11 11 11 12 13 13 11 12 14 13 15 16 15 14 14 15 20 23 18 17 19 17 17 15 24 28 29 28 23 25 27
4 3 1 2 3 6 6 8 10 11 11 11 12 12 12 12 13 13 13 12 14 15 15 15 16 13 13 16 21 24 23 23 19 20 19 20 26 31 33 31 31 35 33
2 2 3 4 6 7 6 10 11 13 12 12 13 14 12 12 13 13 13 14 11 13 14 15 16 16 15 13 21 24 24 24 23 20 25 33 34 33 28 29 31 30 21
3 3 4 8 10 8 8 10 13 12 13 14 14 12 12 14 10 11 12 13 13 13 14 16 17 17 12 15 15 17 17 20 22 24 24 23 25 28 27 25 21 18 19
4 4 8 10 11 11 12 11 12 12 14 13 13 13 12 13 13 12 12 13 14 16 18 16 16 16 14 16 25 24 21 20 21 28 15 15 16 18 18 19 20 20 20
6 8 8 10 13 13 14 14 11 11 13 14 13 12 14 13 12 13 15 17 21 21 22 25 22 16 21 27 27 28 28 28 29 19 14 17 17 18 18 19 21 20 23
Wind_Direction
351 358 360 6 7 10 2 358 358 341 77 113 153 163 189 186 175 175 154 162 177 162 156 151 148 146 149 165 173 162 174 160 155 137 125 163 203 230 209 229 228 224 212
1 3 1 8 10 6 7 360 360 350 8 120 139 125 113 66 66 102 88 109 113 146 154 152 155 150 137 132 163 168 167 160 169 164 146 190 233 242 220 217 230 233 240
2 4 7 9 9 14 12 1 4 358 11 4 107 99 87 72 61 44 63 43 53 56 31 137 157 162 157 168 184 175 183 186 196 204 160 164 208 196 212 226 217 229 230
15 14 12 11 12 8 10 6 8 15 18 25 45 77 79 77 71 61 66 57 51 44 36 35 45 78 105 189 204 190 207 184 202 217 239 322 140 178 207 236 238 227 235
15 18 17 15 12 10 13 12 18 18 20 30 36 48 53 55 51 54 53 54 48 45 39 37 32 26 20 12 8 220 235 220 215 202 203 224 250 323 194 223 223 238 230
23 23 21 21 19 20 22 21 24 18 21 31 34 41 47 47 50 41 45 35 35 25 18 16 23 16 19 22 355 312 271 276 257 230 222 196 190 229 222 241 238 238 234
35 29 25 22 19 19 20 25 28 34 28 35 35 31 37 39 45 40 40 37 28 19 12 17 14 10 3 9 351 333 215 243 246 231 237 242 243 222 224 247 259 255 253
43 38 31 28 25 22 13 23 27 33 34 39 39 39 40 46 47 44 45 48 42 24 19 14 13 13 16 5 360 355 7 333 294 295 281 268 248 227 225 229 249 268 255
62 49 39 35 32 28 20 18 25 30 33 33 40 41 35 44 41 34 40 34 37 31 20 19 14 14 16 10 9 4 7 352 335 312 296 280 267 253 238 233 233 243 272
106 76 53 41 39 38 32 30 27 30 32 37 35 37 37 39 39 33 31 28 23 20 19 11 8 12 12 7 6 7 358 358 360 350 329 297 277 267 253 242 241 240 251
134 104 79 62 47 40 39 41 36 32 31 32 34 38 31 31 30 29 24 20 21 16 9 11 4 7 5 1 358 358 9 0 352 353 344 341 348 307 265 249 249 245 238
148 123 95 69 52 49 42 34 32 36 31 30 36 36 34 29 28 26 20 17 21 9 5 2 358 359 356 351 356 1 355 356 349 342 348 339 336 330 332 311 254 253 249
159 139 91 71 62 52 47 42 35 31 31 43 40 30 23 21 23 21 18 14 10 2 360 353 350 350 345 340 341 348 343 339 334 335 331 327 328 321 324 326 315 322 289
169 155 111 54 34 35 32 28 26 25 21 25 26 24 21 22 17 11 8 7 3 2 351 344 336 338 332 321 338 331 326 329 327 319 312 310 311 312 316 310 306 301 302
172 163 151 83 38 28 21 18 16 13 12 17 16 9 1 0 360 0 358 357 358 353 346 341 342 342 337 341 332 326 326 313 310 312 310 312 308 306 303 300 302 305 306
173 162 131 80 42 32 20 12 8 5 5 7 4 356 354 349 345 341 339 339 342 342 342 344 341 338 338 330 328 330 318 311 317 310 305 298 300 297 302 302 296 291 290
166 163 145 103 47 18 11 358 347 347 1 3 358 352 342 333 327 323 319 317 309 311 317 322 325 321 322 326 328 325 322 319 309 303 300 301 300 301 292 295 298 293 286
151 141 139 128 98 59 3 342 346 358 358 351 342 340 339 333 329 327 325 322 317 312 301 282 277 294 309 322 325 324 322 306 294 287 285 288 293 291 295 294 291 285 281
136 138 132 114 63 10 344 347 348 347 346 341 333 324 325 320 324 326 323 318 316 318 317 320 318 313 303 316 322 320 310 302 299 296 290 290 290 294 300 298 297 294 290
126 128 121 105 30 349 343 339 332 328 331 328 318 308 310 309 311 307 310 311 306 308 317 315 310 309 311 315 321 320 311 310 301 295 293 296 298 302 300 300 298 293 289
118 113 104 91 339 338 340 325 319 316 319 318 313 310 309 312 306 310 311 308 308 308 309 308 306 298 292 298 315 320 313 305 303 302 301 293 297 299 299 296 290 284 287
100 81 78 339 335 336 327 311 304 306 310 307 306 303 302 304 309 305 303 300 306 306 308 306 306 303 298 299 316 314 311 309 306 301 299 296 296 296 299 296 290 288 289
67 12 351 331 328 326 316 308 306 313 311 307 301 300 300 299 302 300 304 306 305 302 303 305 302 301 299 298 310 310 310 309 304 297 297 303 303 304 303 295 289 288 284
353 344 332 319 313 311 310 301 306 309 310 306 305 302 298 299 303 299 295 297 296 296 295 290 288 290 283 306 304 295 290 297 298 295 291 291 308 308 300 302 296 286 281
333 334 319 312 306 310 309 305 309 310 307 301 298 296 295 293 293 289 285 285 282 282 281 282 289 289 304 305 303 307 307 301 296 299 306 311 310 308 306 303 299 296 291
328 322 316 311 307 311 310 307 302 298 298 297 298 297 301 296 290 291 293 287 291 296 296 298 296 299 303 309 309 310 307 303 302 312 317 311 307 306 306 303 300 296 294